Overview Statistics Trail Chart Weather Telemetry Raw packets
 

This is the latest recevied weather packets stored in our database for station/object KI5RAB. If no packets are shown the sender has not sent any weather packets the latest 10 day(s).

<< 19 20 21 22 23 24 25 >>
Time Temp. Humidity Pressure Rain* Wind** Luminosity Snow
1788531502 27.22° C 86% 1018.1 hPa 0 mm - 103 W/m² -
1788531197 27.22° C 87% 1017.9 hPa 0 mm - 99 W/m² -
1788530894 27.22° C 87% 1017.8 hPa 0 mm - 90 W/m² -
1788530589 26.67° C 87% 1017.8 hPa 0 mm - 70 W/m² -
1788530288 26.67° C 87% 1018 hPa 0 mm - 67 W/m² -
1788529982 26.67° C 87% 1017.9 hPa 0 mm - 64 W/m² -
1788529679 26.67° C 87% 1017.9 hPa 0 mm - 50 W/m² -
1788529378 26.67° C 88% 1017.9 hPa 0 mm - 56 W/m² -
1788529073 26.67° C 88% 1017.8 hPa 0 mm - 63 W/m² -
1788528769 26.67° C 88% 1017.7 hPa 0 mm - 50 W/m² -
1788528468 26.67° C 88% 1017.8 hPa 0 mm - 52 W/m² -
1788528163 26.67° C 88% 1017.6 hPa 0 mm - 48 W/m² -
1788527862 26.67° C 89% 1017.5 hPa 0 mm - 32 W/m² -
1788527553 26.67° C 88% 1017.7 hPa 0 mm - 23 W/m² -
1788527252 26.67° C 88% 1017.5 hPa 0 mm - 22 W/m² -
1788526951 26.67° C 88% 1017.5 hPa 0 mm - 21 W/m² -
1788526648 26.67° C 89% 1017.5 hPa 0 mm - 15 W/m² -
1788526362 26.11° C 89% 1017.1 hPa 0 mm - 15 W/m² -
1788526038 26.11° C 89% 1017.4 hPa 0 mm - 11 W/m² -
1788525734 26.11° C 89% 1017.3 hPa 0 mm - 9 W/m² -
1788525429 26.11° C 89% 1017.2 hPa 0 mm - 6 W/m² -
1788525125 26.11° C 89% 1017.2 hPa 0 mm - 5 W/m² -
1788524824 26.11° C 89% 1017 hPa 0 mm - 4 W/m² -
1788524519 26.11° C 89% 1017 hPa 0 mm - 4 W/m² -
1788524214 26.11° C 89% 1017 hPa 0 mm - 3 W/m² -

* Rain latest hour (hover to see other rain measurements)
** Current wind speed in m/s (hover to see current wind gust speed)